[[{"header":{"parameterUnit":"m.s-1","parameterCategory":1,"la1":30.2991,"la2":30.254,"lo1":-89.0895,"lo2":-89.0444,"dy":0.0017,"dx":0.0017,"nx":28,"ny":28,"refTime":"2024-03-28T09:00:00:Z","depth":0,"parameterNumber":2,"parameterNumberName":"U-component_of_WINDS"},"data":[0,0,0,0,0,0,0,0,0,0,0,0,0,0,0,0,0,0,0,0,0,0,0,0,0,0,0,0,0,0,0,0,0,0,0,0,0,0,0,0,0,0,0,0,0,0,0,0,0,0,0,0,0,0,0,0,0,0,-1.3318,-1.3318,0,-1.3322,-1.3322,-1.3322,-1.3301,-1.33,-1.33,-1.3299,-1.3304,-1.3304,-1.3305,0,0,0,0,0,0,0,0,0,0,0,0,0,-1.3295,-1.3296,-1.3318,-1.3318,-1.3319,-1.3322,-1.3322,-1.3322,-1.3301,-1.33,-1.3299,-1.3299,-1.3304,-1.3304,-1.3305,0,0,0,0,0,0,0,0,0,0,0,0,0,-1.3303,-1.3296,-1.3318,-1.3308,-1.3307,-1.3322,-1.3322,-1.3322,-1.3301,-1.33,-1.3299,-1.3298,-1.3303,-1.3304,-1.3305,-1.333,0,0,-1.3308,-1.3309,0,0,0,0,0,0,0,0,-1.3302,-1.3304,-1.331,-1.3309,-1.3308,-1.331,-1.3315,-1.3325,-1.3301,-1.3304,-1.3299,-1.3298,-1.3307,-1.3307,-1.331,-1.333,-1.333,-1.3309,-1.3309,-1.331,-1.331,0,0,0,0,0,0,0,-1.3302,-1.3303,-1.332,-1.331,-1.3309,-1.3304,-1.3304,-1.3317,-1.331,-1.3303,-1.3302,-1.3302,-1.3306,-1.3309,-1.331,-1.333,-1.3309,-1.3309,-1.331,-1.3311,-1.3372,-1.3373,0,0,0,0,0,0,-1.3302,-1.3303,-1.332,-1.332,-1.3303,-1.3305,-1.3305,-1.331,-1.331,-1.3309,-1.3303,-1.3301,-1.3308,-1.3309,-1.331,-1.3339,-1.331,-1.3311,-1.3311,-1.3371,-1.3372,-1.3373,0,0,0,0,0,0,-1.3302,-1.3304,-1.332,-1.3311,-1.3313,-1.3307,-1.3312,-1.3311,-1.3314,-1.331,-1.3309,-1.3307,-1.3307,-1.3309,-1.3325,-1.3339,-1.3311,-1.3312,-1.3369,-1.3371,-1.3372,-1.3397,0,0,0,0,0,0,-1.3301,-1.3304,-1.3313,-1.3311,-1.3313,-1.3334,-1.3313,-1.3312,-1.3316,-1.3313,-1.3314,-1.3313,-1.3307,-1.3324,-1.3326,-1.334,-1.3313,-1.3368,-1.337,-1.3372,-1.3395,-1.3399,-1.3403,0,0,0,0,0,-1.3301,-1.332,-1.3313,-1.3316,-1.3324,-1.3335,-1.3336,-1.3328,-1.3317,-1.3326,-1.3324,-1.3313,-1.3337,-1.3326,-1.3328,-1.3342,-1.3367,-1.337,-1.3372,-1.3393,-1.3399,-1.3403,0,0,0,0,0,0,-1.3324,-1.332,-1.3312,-1.3332,-1.3334,-1.3331,-1.3343,-1.3334,-1.334,-1.3337,-1.3328,-1.3328,-1.3346,-1.3346,-1.3333,-1.3367,-1.335,-1.3353,-1.3366,-1.3371,-1.3375,-1.3374,-1.3314,0,0,0,0,0,-1.3331,-1.334,-1.3336,-1.3353,-1.3355,-1.3349,-1.3353,-1.3347,-1.3349,-1.335,-1.3348,-1.3351,-1.336,-1.3365,-1.3373,-1.3395,-1.3395,-1.3406,-1.341,-1.3414,-1.3416,-1.3428,-1.3433,-1.338,-1.338,-1.338,0,0,-1.3346,-1.3345,-1.3351,-1.3358,-1.3359,-1.3369,-1.335,-1.3361,-1.3368,-1.3352,-1.3367,-1.3366,-1.3369,-1.3389,-1.3397,-1.3389,-1.3431,-1.3416,-1.3419,-1.342,-1.3431,-1.3436,-1.3441,-1.3382,-1.3382,-1.3381,0,0,-1.3379,-1.3379,-1.3393,-1.3395,-1.3396,-1.3392,-1.3396,-1.3395,-1.3394,-1.3409,-1.3397,-1.3406,-1.342,-1.3423,-1.3426,-1.346,-1.345,-1.3463,-1.3483,-1.3495,-1.35,-1.3503,-1.3516,-1.352,-1.3465,-1.3465,-1.3465,0,-1.3397,-1.3411,-1.3402,-1.3414,-1.3417,-1.3403,-1.3418,-1.342,-1.3424,-1.3427,-1.3418,-1.3436,-1.3437,-1.3457,-1.3465,-1.3468,-1.3472,-1.3462,-1.35,-1.3503,-1.3506,-1.3518,-1.3523,-1.3467,-1.3467,-1.3467,-1.3466,0,-1.3434,-1.3444,-1.3456,-1.346,-1.3465,-1.3478,-1.3472,-1.3478,-1.3472,-1.3469,-1.3485,-1.3485,-1.3493,-1.3497,-1.3491,-1.3517,-1.3512,-1.3501,-1.3485,-1.3513,-1.3524,-1.3528,-1.3469,-1.3468,-1.3468,-1.3468,0,0,-1.3481,-1.348,-1.3484,-1.3486,-1.3487,-1.3495,-1.3508,-1.3515,-1.3521,-1.3524,-1.3535,-1.3548,-1.3539,-1.3542,-1.3536,-1.3547,-1.3574,-1.3535,-1.3535,-1.3543,-1.3603,-1.3611,-1.3616,-1.3568,-1.3569,-1.357,-1.3603,0,-1.3513,-1.3534,-1.3527,-1.3549,-1.3559,-1.3545,-1.3557,-1.3559,-1.3557,-1.3565,-1.3563,-1.3572,-1.3559,-1.3561,-1.3571,-1.3569,-1.3586,-1.3566,-1.3579,-1.3579,-1.3578,-1.3622,-1.363,-1.3661,-1.3607,-1.3608,-1.3608,0,-1.3553,-1.3558,-1.3581,-1.358,-1.3584,-1.3595,-1.36,-1.3608,-1.3611,-1.3608,-1.3613,-1.3605,-1.3618,-1.3602,-1.3621,-1.3607,-1.3612,-1.3612,-1.3613,-1.3614,-1.3595,-1.3624,-1.3671,-1.3676,-1.3615,-1.3614,-1.3614,0,-1.3585,-1.3597,-1.3613,-1.3615,-1.3615,-1.3622,-1.3623,-1.3624,-1.3629,-1.3635,-1.3638,-1.3645,-1.3649,-1.3655,-1.3649,-1.3638,-1.3669,-1.3652,-1.3668,-1.3668,-1.3675,-1.3674,-1.3723,-1.3678,-1.3678,-1.3678,-1.3678,0,-1.3621,-1.3636,-1.3627,-1.3637,-1.3653,-1.3644,-1.3661,-1.366,-1.3662,-1.3671,-1.3661,-1.367,-1.3662,-1.3671,-1.3667,-1.3683,-1.3685,-1.3684,-1.3683,-1.3685,-1.3685,-1.3688,-1.3685,-1.3679,-1.3679,-1.3679,-1.3678,0,-1.3659,-1.3654,-1.367,-1.3669,-1.3669,-1.3681,-1.368,-1.3689,-1.3686,-1.3699,-1.3701,-1.3697,-1.3707,-1.3702,-1.3712,-1.371,-1.3731,-1.3726,-1.373,-1.3729,-1.3745,-1.3743,-1.3797,-1.3804,-1.3754,-1.3754,-1.3755,0,-1.3683,-1.3694,-1.3694,-1.3699,-1.37,-1.3709,-1.3714,-1.3706,-1.3712,-1.3716,-1.3725,-1.3733,-1.374,-1.3757,-1.3755,-1.3763,-1.3759,-1.3777,-1.376,-1.3762,-1.3759,-1.3759,-1.376,-1.3781,-1.3781,-1.3782,-1.3782,0,-1.3725,-1.3722,-1.3729,-1.3735,-1.3741,-1.3746,-1.375,-1.3755,-1.3747,-1.3754,-1.3764,-1.3769,-1.378,-1.3789,-1.3796,-1.3797,-1.3789,-1.3787,-1.3791,-1.3794,-1.3795,-1.3795,-1.3739,-1.3786,-1.3786,-1.3785,-1.3785,-1.3785,-1.3757,-1.3766,-1.3768,-1.3776,-1.3778,-1.3782,-1.379,-1.3789,-1.3796,-1.3804,-1.3799,-1.3811,-1.3814,-1.3822,-1.3824,-1.3834,-1.3826,-1.3832,-1.3834,-1.3835,-1.3838,-1.3794,-1.3835,-1.3835,-1.3835,-1.3835,-1.3835,0,-1.3799,-1.3799,-1.3807,-1.3812,-1.3819,-1.381,-1.3814,-1.382,-1.383,-1.3833,-1.384,-1.3852,-1.3861,-1.386,-1.3868,-1.3876,-1.3872,-1.3878,-1.3877,-1.3878,-1.3844,-1.3839,-1.3881,-1.3881,-1.3881,-1.3881,-1.3881,-1.3881,-1.3822,-1.3837,-1.3834,-1.3851,-1.3851,-1.3862,-1.3865,-1.3868,-1.3871,-1.3884,-1.3891,-1.389,-1.3892,-1.39,-1.3908,-1.3907,-1.3911,-1.3919,-1.3917,-1.3885,-1.388,-1.3876,-1.3872,-1.392,-1.392,-1.395,-1.3951,-1.3951]},{"header":{"parameterUnit":"m.s-1","parameterCategory":1,"la1":30.2991,"la2":30.254,"lo1":-89.0895,"lo2":-89.0444,"dy":0.0017,"dx":0.0017,"nx":28,"ny":28,"refTime":"2024-03-28T09:00:00:Z","depth":0,"parameterNumber":3,"parameterNumberName":"V-component_of_WINDS"},"data":[0,0,0,0,0,0,0,0,0,0,0,0,0,0,0,0,0,0,0,0,0,0,0,0,0,0,0,0,0,0,0,0,0,0,0,0,0,0,0,0,0,0,0,0,0,0,0,0,0,0,0,0,0,0,0,0,0,0,4.0357,4.0357,0,4.0399,4.0399,4.04,4.0366,4.0364,4.0363,4.0361,4.0401,4.0404,4.0406,0,0,0,0,0,0,0,0,0,0,0,0,0,4.0244,4.0246,4.0357,4.0357,4.0358,4.0399,4.0399,4.04,4.0366,4.0364,4.0362,4.0361,4.04,4.0403,4.0406,0,0,0,0,0,0,0,0,0,0,0,0,0,4.029,4.0247,4.0357,4.0346,4.0345,4.0399,4.0399,4.04,4.0366,4.0364,4.0362,4.036,4.0399,4.0403,4.0406,4.0472,0,0,4.0417,4.0419,0,0,0,0,0,0,0,0,4.0287,4.0294,4.0347,4.0347,4.0346,4.0375,4.0374,4.0424,4.0367,4.0358,4.0361,4.0359,4.0394,4.0398,4.041,4.0474,4.0475,4.0418,4.042,4.0422,4.0423,0,0,0,0,0,0,0,4.0284,4.0292,4.0373,4.0348,4.0347,4.0338,4.0342,4.0383,4.0387,4.0359,4.0356,4.0362,4.0393,4.0407,4.0411,4.0476,4.0418,4.0421,4.0423,4.0425,4.0595,4.0597,0,0,0,0,0,0,4.0282,4.029,4.0372,4.0375,4.0311,4.0342,4.0346,4.0368,4.0387,4.0388,4.0364,4.036,4.0402,4.0407,4.0412,4.049,4.0421,4.0425,4.0427,4.0592,4.0595,4.0598,0,0,0,0,0,0,4.028,4.029,4.037,4.0331,4.0341,4.0346,4.037,4.037,4.0383,4.0391,4.0391,4.0377,4.04,4.0407,4.0457,4.0491,4.0426,4.043,4.059,4.0593,4.0597,4.0646,0,0,0,0,0,0,4.0277,4.0289,4.0315,4.0332,4.0343,4.0416,4.0372,4.0372,4.039,4.0386,4.0404,4.0404,4.0399,4.0452,4.0461,4.0495,4.0433,4.0587,4.0591,4.0595,4.0641,4.0651,4.0659,0,0,0,0,0,4.0273,4.0326,4.0317,4.0327,4.0375,4.0418,4.0424,4.0418,4.0393,4.0418,4.0423,4.0404,4.0486,4.0458,4.0467,4.0502,4.0584,4.059,4.0595,4.0637,4.0649,4.0659,0,0,0,0,0,0,4.0312,4.0329,4.0318,4.0378,4.0397,4.0412,4.0444,4.043,4.0455,4.045,4.0441,4.0445,4.0498,4.0505,4.0473,4.0567,4.0531,4.0539,4.056,4.0571,4.0579,4.0576,4.0436,0,0,0,0,0,4.0327,4.0362,4.0374,4.0426,4.0436,4.0439,4.0457,4.0451,4.0469,4.0476,4.0485,4.0503,4.0532,4.0552,4.058,4.0642,4.0645,4.0671,4.068,4.0687,4.0693,4.0727,4.0738,4.0615,4.0615,4.0615,0,0,4.036,4.0373,4.0395,4.0435,4.0448,4.0483,4.0445,4.0483,4.0509,4.0482,4.053,4.0537,4.0556,4.0613,4.0638,4.062,4.0728,4.0694,4.07,4.0702,4.0734,4.0745,4.0756,4.0619,4.0618,4.0618,0,0,4.0437,4.0451,4.0496,4.0511,4.0533,4.0534,4.0545,4.0562,4.0566,4.0615,4.0595,4.0625,4.0676,4.0691,4.0705,4.0788,4.0771,4.0797,4.0842,4.0875,4.0885,4.0893,4.0923,4.0933,4.0803,4.0804,4.0804,0,4.0474,4.0527,4.0521,4.0561,4.0578,4.0557,4.0602,4.0616,4.0646,4.0658,4.0638,4.0703,4.0714,4.0774,4.0794,4.0806,4.0818,4.0795,4.0884,4.0893,4.09,4.0928,4.094,4.0807,4.0806,4.0806,4.0806,0,4.0571,4.0608,4.0642,4.0672,4.0693,4.0736,4.0735,4.0757,4.075,4.0753,4.0802,4.0815,4.0845,4.0859,4.0851,4.0918,4.0906,4.0886,4.085,4.0915,4.0941,4.0952,4.0811,4.081,4.0809,4.0808,0,0,4.0673,4.07,4.0713,4.0726,4.0749,4.0777,4.0818,4.0848,4.0868,4.0888,4.0922,4.0967,4.0948,4.0964,4.0958,4.0986,4.1051,4.0962,4.0962,4.0978,4.1125,4.1141,4.1153,4.1041,4.1043,4.1044,4.1124,0,4.0751,4.0824,4.082,4.0888,4.0921,4.0902,4.0938,4.0955,4.0959,4.0987,4.0991,4.1023,4.0996,4.1005,4.1033,4.1038,4.1081,4.1032,4.1071,4.1072,4.1067,4.1167,4.1183,4.1257,4.1134,4.1135,4.1137,0,4.0851,4.0877,4.0949,4.0967,4.0981,4.1013,4.1041,4.1069,4.1088,4.1088,4.1107,4.1096,4.1137,4.11,4.1156,4.1123,4.1139,4.1143,4.1146,4.1149,4.1108,4.1172,4.1281,4.1292,4.1153,4.1151,4.115,0,4.0918,4.097,4.102,4.1032,4.1055,4.1078,4.1088,4.1105,4.1124,4.1148,4.116,4.1188,4.1204,4.1225,4.1222,4.1196,4.1278,4.1242,4.128,4.128,4.1297,4.1296,4.141,4.1308,4.1308,4.1308,4.1308,0,4.1005,4.1049,4.1051,4.1081,4.113,4.1125,4.1174,4.1181,4.1197,4.1228,4.1212,4.1241,4.1235,4.1264,4.1262,4.1308,4.1315,4.1316,4.1315,4.1317,4.1317,4.1327,4.1322,4.1311,4.131,4.131,4.1309,0,4.1087,4.109,4.1143,4.1161,4.1166,4.1201,4.1216,4.1244,4.1247,4.1287,4.1296,4.13,4.1333,4.1332,4.137,4.1368,4.1425,4.1418,4.1419,4.1417,4.1455,4.1452,4.1579,4.1595,4.1483,4.1484,4.1485,0,4.1143,4.1177,4.1198,4.1219,4.1231,4.1263,4.1283,4.1279,4.13,4.1324,4.135,4.1382,4.1407,4.1461,4.1467,4.1495,4.1489,4.1531,4.1493,4.1494,4.1489,4.1487,4.149,4.1539,4.154,4.1541,4.1542,0,4.124,4.124,4.127,4.13,4.1324,4.1347,4.1368,4.1385,4.1384,4.1408,4.1442,4.1462,4.1501,4.1533,4.156,4.1569,4.1555,4.1554,4.1564,4.1567,4.1566,4.1567,4.1439,4.1551,4.155,4.1549,4.1549,4.1548,4.1311,4.134,4.136,4.1393,4.1409,4.143,4.1458,4.1465,4.1494,4.1526,4.1522,4.156,4.1578,4.1614,4.1626,4.1655,4.164,4.1655,4.1658,4.1662,4.1666,4.1562,4.166,4.166,4.1659,4.1659,4.1659,0,4.1407,4.1419,4.145,4.1481,4.1507,4.1493,4.1516,4.1538,4.1573,4.1591,4.1617,4.1657,4.1688,4.1697,4.1726,4.1748,4.1742,4.1756,4.1754,4.1756,4.1678,4.1666,4.176,4.176,4.176,4.176,4.176,4.176,4.1461,4.151,4.1512,4.1569,4.158,4.1619,4.1633,4.1652,4.1667,4.1712,4.1738,4.1744,4.1759,4.1789,4.1817,4.1818,4.183,4.1846,4.1845,4.1772,4.1762,4.1752,4.1741,4.1849,4.1849,4.1921,4.1922,4.1922]}]]